When you browse on this site, cookies collect data to enhance your experience and personalize the content and advertising you see.
Visit our Privacy Policy to learn more. By continuing to use the site, you agree to this use of cookies and data.
  • In Portugal
  • List of Countries
  • For 7 days
  • Water Temperature
  • Satellite Maps
  • Weather Map
  • Weather Widgets
  • user-avatar
    Login

    Hourly Weather Canberra

    Today, 18 January, Friday

    Time Temperature Precipitation Wind Pressure Humidity
    00:00 +24°C° 0 mm 2 mps 707 mmHg 55%
    01:00 +23°C° 0 mm 1 mps 707 mmHg 58%
    02:00 +23°C° 0 mm 1 mps 707 mmHg 60%
    03:00 +23°C° 0 mm 1 mps 707 mmHg 62%
    04:00 +20°C° 0 mm 0 mps 707 mmHg 71%
    05:00 +23°C° 0 mm 1 mps 707 mmHg 67%
    06:00 +24°C° 0 mm 1 mps 707 mmHg 62%
    07:00 +26°C° 0 mm 2 mps 707 mmHg 58%
    08:00 +29°C° 0 mm 3 mps 708 mmHg 47%
    09:00 +34°C° 0 mm 4 mps 708 mmHg 35%
    10:00 +36°C° 0 mm 3 mps 708 mmHg 28%
    11:00 +38°C° 0.1 mm 4 mps 708 mmHg 25%
    12:00 +40°C° 0.1 mm 5 mps 708 mmHg 22%
    13:00 +42°C° 0.1 mm 6 mps 707 mmHg 19%
    14:00 +42°C° 0 mm 6 mps 707 mmHg 19%
    15:00 +44°C° 0 mm 6 mps 706 mmHg 18%
    16:00 +43°C° 0 mm 5 mps 706 mmHg 17%
    17:00 +41°C° 0 mm 5 mps 706 mmHg 21%
    18:00 +37°C° 0 mm 4 mps 706 mmHg 25%
    19:00 +35°C° 0 mm 4 mps 706 mmHg 29%
    20:00 +33°C° 0.2 mm 3 mps 706 mmHg 38%
    21:00 +30°C° 0.2 mm 3 mps 707 mmHg 46%
    22:00 +28°C° 0.2 mm 2 mps 707 mmHg 55%
    23:00 +27°C° 0.4 mm 3 mps 708 mmHg 57%

    Tomorrow, 19 January, Saturday

    Time Temperature Precipitation Wind Pressure Humidity
    00:00 +27°C° 0.4 mm 4 mps 708 mmHg 58%
    01:00 +26°C° 0.4 mm 5 mps 709 mmHg 59%
    02:00 +25°C° 0.7 mm 4 mps 709 mmHg 64%
    03:00 +25°C° 0.7 mm 2 mps 708 mmHg 68%
    04:00 +24°C° 0.7 mm 1 mps 708 mmHg 73%
    05:00 +24°C° 0 mm 1 mps 709 mmHg 72%
    06:00 +25°C° 0 mm 1 mps 710 mmHg 71%
    07:00 +25°C° 0 mm 1 mps 710 mmHg 70%
    08:00 +27°C° 0 mm 1 mps 711 mmHg 64%
    09:00 +28°C° 0 mm 2 mps 711 mmHg 58%
    10:00 +30°C° 0 mm 2 mps 712 mmHg 52%
    11:00 +31°C° 0 mm 3 mps 712 mmHg 48%
    12:00 +33°C° 0 mm 3 mps 712 mmHg 44%
    13:00 +34°C° 0 mm 4 mps 712 mmHg 40%
    14:00 +33°C° 0 mm 4 mps 711 mmHg 42%
    15:00 +33°C° 0 mm 5 mps 711 mmHg 44%
    16:00 +32°C° 0 mm 5 mps 711 mmHg 46%
    17:00 +28°C° 0 mm 5 mps 711 mmHg 55%
    18:00 +23°C° 0 mm 5 mps 711 mmHg 65%
    19:00 +20°C° 0 mm 5 mps 711 mmHg 75%
    20:00 +19°C° 0 mm 4 mps 712 mmHg 77%
    21:00 +18°C° 0 mm 4 mps 712 mmHg 80%
    22:00 +17°C° 0 mm 3 mps 713 mmHg 82%
    23:00 +17°C° 0 mm 3 mps 712 mmHg 83%

    Day after tomorrow, 20 January, Sunday

    Time Temperature Precipitation Wind Pressure Humidity
    00:00 +17°C° 0 mm 3 mps 712 mmHg 83%
    01:00 +16°C° 0 mm 2 mps 712 mmHg 83%
    02:00 +16°C° 0 mm 2 mps 712 mmHg 85%
    03:00 +16°C° 0 mm 2 mps 712 mmHg 86%
    04:00 +16°C° 0 mm 2 mps 712 mmHg 88%
    05:00 +18°C° 0 mm 1 mps 712 mmHg 84%
    06:00 +19°C° 0 mm 1 mps 712 mmHg 79%
    07:00 +20°C° 0 mm 1 mps 713 mmHg 75%
    08:00 +23°C° 0 mm 1 mps 713 mmHg 65%
    09:00 +26°C° 0 mm 2 mps 713 mmHg 56%
    10:00 +29°C° 0 mm 2 mps 713 mmHg 46%
    11:00 +31°C° 0 mm 2 mps 713 mmHg 41%
    12:00 +34°C° 0 mm 2 mps 713 mmHg 35%
    13:00 +36°C° 0 mm 2 mps 713 mmHg 30%
    14:00 +37°C° 0 mm 2 mps 712 mmHg 28%
    15:00 +37°C° 0 mm 2 mps 712 mmHg 26%
    16:00 +38°C° 0 mm 3 mps 712 mmHg 24%
    17:00 +34°C° 0 mm 4 mps 712 mmHg 36%
    18:00 +30°C° 0 mm 4 mps 711 mmHg 48%
    19:00 +27°C° 0 mm 5 mps 711 mmHg 60%
    20:00 +25°C° 0 mm 5 mps 712 mmHg 67%
    21:00 +22°C° 0 mm 4 mps 712 mmHg 75%
    22:00 +20°C° 0 mm 4 mps 712 mmHg 82%
    23:00 +20°C° 0 mm 4 mps 712 mmHg 83%

    21 January, Monday

    Time Temperature Precipitation Wind Pressure Humidity
    00:00 +20°C° 0 mm 3 mps 712 mmHg 84%
    01:00 +20°C° 0 mm 3 mps 712 mmHg 85%
    02:00 +20°C° 0 mm 3 mps 712 mmHg 85%
    03:00 +20°C° 0 mm 2 mps 712 mmHg 86%
    04:00 +20°C° 0 mm 2 mps 711 mmHg 86%
    05:00 +20°C° 0 mm 2 mps 712 mmHg 85%
    06:00 +21°C° 0 mm 2 mps 712 mmHg 83%
    07:00 +21°C° 0 mm 2 mps 712 mmHg 82%
    08:00 +25°C° 0 mm 2 mps 712 mmHg 72%
    09:00 +27°C° 0 mm 2 mps 712 mmHg 63%
    10:00 +29°C° 0 mm 3 mps 713 mmHg 53%
    11:00 +33°C° 0 mm 3 mps 712 mmHg 47%
    12:00 +35°C° 0 mm 3 mps 712 mmHg 41%
    13:00 +37°C° 0 mm 3 mps 711 mmHg 34%
    14:00 +35°C° 0 mm 3 mps 711 mmHg 38%
    15:00 +34°C° 0 mm 3 mps 710 mmHg 42%
    16:00 +31°C° 0 mm 3 mps 709 mmHg 46%
    17:00 +30°C° 0 mm 2 mps 709 mmHg 51%
    18:00 +29°C° 0 mm 2 mps 709 mmHg 56%
    19:00 +28°C° 0 mm 2 mps 709 mmHg 61%
    20:00 +27°C° 0.3 mm 2 mps 710 mmHg 67%
    21:00 +26°C° 0.3 mm 2 mps 710 mmHg 73%
    22:00 +25°C° 0.3 mm 2 mps 710 mmHg 78%
    23:00 +25°C° 1.3 mm 2 mps 710 mmHg 80%

    22 January, Tuesday

    Time Temperature Precipitation Wind Pressure Humidity
    00:00 +24°C° 1.3 mm 1 mps 710 mmHg 83%
    01:00 +23°C° 1.3 mm 1 mps 709 mmHg 85%
    02:00 +21°C° 0 mm 0 mps 709 mmHg 84%
    03:00 +21°C° 0 mm 0 mps 709 mmHg 83%
    04:00 +21°C° 0 mm 0 mps 708 mmHg 81%
    05:00 +24°C° 0 mm 1 mps 709 mmHg 78%
    06:00 +25°C° 0 mm 1 mps 709 mmHg 76%
    07:00 +26°C° 0 mm 1 mps 709 mmHg 73%
    08:00 +28°C° 0 mm 3 mps 710 mmHg 62%
    09:00 +32°C° 0 mm 4 mps 710 mmHg 51%
    10:00 +34°C° 0 mm 5 mps 710 mmHg 40%
    11:00 +36°C° 0 mm 5 mps 709 mmHg 34%
    12:00 +37°C° 0 mm 5 mps 709 mmHg 28%
    13:00 +40°C° 0 mm 5 mps 708 mmHg 22%
    14:00 +40°C° 0 mm 5 mps 708 mmHg 21%
    15:00 +40°C° 0 mm 5 mps 708 mmHg 20%
    16:00 +40°C° 0 mm 5 mps 707 mmHg 19%
    17:00 +37°C° 0 mm 4 mps 707 mmHg 24%
    18:00 +35°C° 0 mm 3 mps 707 mmHg 28%
    19:00 +32°C° 0 mm 2 mps 707 mmHg 32%
    20:00 +30°C° 0 mm 2 mps 707 mmHg 42%
    21:00 +28°C° 0 mm 2 mps 707 mmHg 52%
    22:00 +26°C° 0 mm 2 mps 707 mmHg 62%
    23:00 +25°C° 0 mm 2 mps 707 mmHg 70%

    23 January, Wednesday

    Time Temperature Precipitation Wind Pressure Humidity
    00:00 +24°C° 0 mm 1 mps 707 mmHg 78%
    01:00 +23°C° 0 mm 1 mps 707 mmHg 86%
    02:00 +23°C° 0 mm 1 mps 706 mmHg 86%
    03:00 +22°C° 0 mm 1 mps 706 mmHg 86%
    04:00 +22°C° 0 mm 1 mps 706 mmHg 86%
    05:00 +23°C° 0 mm 1 mps 707 mmHg 80%
    06:00 +25°C° 0 mm 1 mps 708 mmHg 74%
    07:00 +26°C° 0 mm 1 mps 708 mmHg 68%
    08:00 +29°C° 0 mm 1 mps 708 mmHg 57%
    09:00 +32°C° 0 mm 1 mps 709 mmHg 47%
    10:00 +34°C° 0 mm 1 mps 709 mmHg 37%
    11:00 +34°C° 0.1 mm 1 mps 709 mmHg 37%
    12:00 +35°C° 0.1 mm 2 mps 708 mmHg 36%
    13:00 +35°C° 0.1 mm 2 mps 708 mmHg 36%
    14:00 +31°C° 0.2 mm 3 mps 707 mmHg 43%
    15:00 +28°C° 0.2 mm 5 mps 707 mmHg 50%
    16:00 +24°C° 0.2 mm 6 mps 707 mmHg 57%
    17:00 +23°C° 0 mm 6 mps 707 mmHg 63%
    18:00 +22°C° 0 mm 5 mps 708 mmHg 69%
    19:00 +21°C° 0 mm 5 mps 708 mmHg 75%
    20:00 +20°C° 0 mm 5 mps 709 mmHg 77%
    21:00 +20°C° 0 mm 5 mps 709 mmHg 80%
    22:00 +19°C° 0 mm 4 mps 710 mmHg 82%
    23:00 +19°C° 0 mm 4 mps 710 mmHg 83%
    Show more